• In Austria
  • List of Countries
  • For 7 days
  • Water Temperature
  • Satellite Maps
  • Weather Map
  • News
  • Weather Widgets
  • user-avatar
    Login

    Hourly Weather Wygledy

    Today, 20 September, Thursday

    Time Temperature Precipitation Wind Pressure Humidity
    00:00 +19°C° 0 mm 2 mps 756 mmHg 69%
    01:00 +19°C° 0 mm 2 mps 756 mmHg 71%
    02:00 +19°C° 0 mm 2 mps 756 mmHg 73%
    03:00 +18°C° 0 mm 2 mps 756 mmHg 74%
    04:00 +18°C° 0 mm 2 mps 756 mmHg 76%
    05:00 +19°C° 0 mm 2 mps 756 mmHg 74%
    06:00 +19°C° 0 mm 2 mps 756 mmHg 72%
    07:00 +20°C° 0 mm 2 mps 756 mmHg 66%
    08:00 +23°C° 0 mm 2 mps 756 mmHg 60%
    09:00 +25°C° 0 mm 2 mps 756 mmHg 55%
    10:00 +27°C° 0 mm 3 mps 756 mmHg 49%
    11:00 +28°C° 0 mm 3 mps 756 mmHg 46%
    12:00 +29°C° 0 mm 3 mps 756 mmHg 43%
    13:00 +30°C° 0 mm 3 mps 756 mmHg 40%
    14:00 +30°C° 0 mm 3 mps 755 mmHg 41%
    15:00 +30°C° 0 mm 2 mps 755 mmHg 42%
    16:00 +30°C° 0 mm 2 mps 755 mmHg 43%
    17:00 +28°C° 0 mm 2 mps 755 mmHg 48%
    18:00 +26°C° 0 mm 2 mps 755 mmHg 52%
    19:00 +24°C° 0 mm 2 mps 755 mmHg 56%
    20:00 +23°C° 0 mm 2 mps 755 mmHg 58%
    21:00 +23°C° 0 mm 2 mps 755 mmHg 59%
    22:00 +21°C° 0 mm 2 mps 755 mmHg 61%
    23:00 +20°C° 0 mm 2 mps 755 mmHg 61%

    Tomorrow, 21 September, Friday

    Time Temperature Precipitation Wind Pressure Humidity
    00:00 +20°C° 0 mm 3 mps 755 mmHg 62%
    01:00 +20°C° 0 mm 3 mps 755 mmHg 62%
    02:00 +19°C° 0 mm 3 mps 755 mmHg 62%
    03:00 +19°C° 0 mm 3 mps 754 mmHg 62%
    04:00 +18°C° 0 mm 3 mps 754 mmHg 62%
    05:00 +19°C° 0 mm 3 mps 754 mmHg 61%
    06:00 +19°C° 0 mm 3 mps 754 mmHg 59%
    07:00 +19°C° 0 mm 3 mps 754 mmHg 58%
    08:00 +22°C° 0 mm 4 mps 754 mmHg 53%
    09:00 +25°C° 0 mm 4 mps 753 mmHg 48%
    10:00 +27°C° 0 mm 5 mps 753 mmHg 42%
    11:00 +27°C° 0 mm 5 mps 752 mmHg 40%
    12:00 +28°C° 0 mm 6 mps 752 mmHg 37%
    13:00 +29°C° 0 mm 6 mps 751 mmHg 34%
    14:00 +29°C° 0 mm 6 mps 750 mmHg 36%
    15:00 +28°C° 0 mm 5 mps 750 mmHg 38%
    16:00 +28°C° 0 mm 5 mps 749 mmHg 39%
    17:00 +27°C° 0 mm 5 mps 749 mmHg 43%
    18:00 +25°C° 0 mm 5 mps 748 mmHg 46%
    19:00 +23°C° 0 mm 5 mps 748 mmHg 50%
    20:00 +23°C° 0 mm 5 mps 748 mmHg 50%
    21:00 +22°C° 0 mm 6 mps 748 mmHg 50%
    22:00 +22°C° 0 mm 6 mps 748 mmHg 50%
    23:00 +20°C° 0.4 mm 7 mps 749 mmHg 60%

    Day after tomorrow, 22 September, Saturday

    Time Temperature Precipitation Wind Pressure Humidity
    00:00 +18°C° 0.4 mm 7 mps 749 mmHg 69%
    01:00 +16°C° 0.4 mm 8 mps 750 mmHg 79%
    02:00 +15°C° 0.5 mm 7 mps 751 mmHg 78%
    03:00 +14°C° 0.5 mm 5 mps 752 mmHg 78%
    04:00 +13°C° 0.5 mm 4 mps 753 mmHg 77%
    05:00 +13°C° 0 mm 4 mps 754 mmHg 74%
    06:00 +13°C° 0 mm 5 mps 754 mmHg 71%
    07:00 +12°C° 0 mm 5 mps 755 mmHg 68%
    08:00 +13°C° 0 mm 6 mps 755 mmHg 63%
    09:00 +14°C° 0 mm 6 mps 755 mmHg 58%
    10:00 +14°C° 0 mm 6 mps 755 mmHg 52%
    11:00 +15°C° 0 mm 6 mps 755 mmHg 49%
    12:00 +16°C° 0 mm 6 mps 755 mmHg 45%
    13:00 +17°C° 0 mm 6 mps 755 mmHg 41%
    14:00 +17°C° 0 mm 6 mps 755 mmHg 42%
    15:00 +17°C° 0 mm 6 mps 754 mmHg 43%
    16:00 +17°C° 0 mm 6 mps 754 mmHg 44%
    17:00 +16°C° 0 mm 5 mps 754 mmHg 44%
    18:00 +16°C° 0 mm 5 mps 755 mmHg 45%
    19:00 +15°C° 0 mm 4 mps 755 mmHg 45%
    20:00 +14°C° 0 mm 4 mps 755 mmHg 50%
    21:00 +13°C° 0 mm 4 mps 755 mmHg 54%
    22:00 +12°C° 0 mm 4 mps 755 mmHg 58%
    23:00 +12°C° 0 mm 4 mps 755 mmHg 61%

    23 September, Sunday

    Time Temperature Precipitation Wind Pressure Humidity
    00:00 +11°C° 0 mm 4 mps 755 mmHg 64%
    01:00 +11°C° 0 mm 4 mps 755 mmHg 67%
    02:00 +11°C° 0 mm 4 mps 755 mmHg 68%
    03:00 +10°C° 0 mm 4 mps 755 mmHg 70%
    04:00 +10°C° 0 mm 4 mps 755 mmHg 72%
    05:00 +10°C° 0 mm 4 mps 755 mmHg 70%
    06:00 +11°C° 0 mm 4 mps 755 mmHg 68%
    07:00 +10°C° 0 mm 5 mps 755 mmHg 66%
    08:00 +13°C° 0 mm 5 mps 755 mmHg 61%
    09:00 +14°C° 0 mm 5 mps 754 mmHg 55%
    10:00 +16°C° 0 mm 6 mps 754 mmHg 50%
    11:00 +16°C° 0 mm 5 mps 753 mmHg 51%
    12:00 +16°C° 0 mm 5 mps 753 mmHg 52%
    13:00 +15°C° 0 mm 5 mps 752 mmHg 52%
    14:00 +15°C° 0.6 mm 4 mps 751 mmHg 60%
    15:00 +14°C° 0.6 mm 3 mps 750 mmHg 67%
    16:00 +14°C° 0.6 mm 2 mps 750 mmHg 74%
    17:00 +13°C° 0.7 mm 3 mps 748 mmHg 77%
    18:00 +13°C° 0.7 mm 5 mps 747 mmHg 80%
    19:00 +13°C° 0.7 mm 6 mps 746 mmHg 84%
    20:00 +14°C° 1.8 mm 7 mps 744 mmHg 85%
    21:00 +13°C° 1.8 mm 8 mps 743 mmHg 86%
    22:00 +15°C° 1.8 mm 9 mps 741 mmHg 88%
    23:00 +16°C° 1.8 mm 9 mps 740 mmHg 86%

    24 September, Monday

    Time Temperature Precipitation Wind Pressure Humidity
    00:00 +17°C° 1.8 mm 9 mps 739 mmHg 84%
    01:00 +17°C° 1.8 mm 9 mps 738 mmHg 83%
    02:00 +17°C° 0.8 mm 9 mps 738 mmHg 84%
    03:00 +17°C° 0.8 mm 8 mps 737 mmHg 85%
    04:00 +16°C° 0.8 mm 8 mps 737 mmHg 86%
    05:00 +15°C° 0.2 mm 9 mps 739 mmHg 85%
    06:00 +12°C° 0.2 mm 10 mps 740 mmHg 84%
    07:00 +11°C° 0.2 mm 11 mps 742 mmHg 82%
    08:00 +11°C° 0.1 mm 11 mps 743 mmHg 78%
    09:00 +11°C° 0.1 mm 11 mps 745 mmHg 75%
    10:00 +11°C° 0.1 mm 11 mps 746 mmHg 71%
    11:00 +11°C° 0.2 mm 11 mps 747 mmHg 67%
    12:00 +12°C° 0.2 mm 10 mps 748 mmHg 63%
    13:00 +12°C° 0.2 mm 10 mps 749 mmHg 60%
    14:00 +12°C° 0.4 mm 10 mps 750 mmHg 62%
    15:00 +11°C° 0.4 mm 10 mps 752 mmHg 65%
    16:00 +11°C° 0.4 mm 9 mps 753 mmHg 67%
    17:00 +10°C° 0 mm 8 mps 754 mmHg 69%
    18:00 +9°C° 0 mm 7 mps 755 mmHg 70%
    19:00 +8°C° 0 mm 6 mps 756 mmHg 72%
    20:00 +7°C° 0 mm 6 mps 757 mmHg 71%
    21:00 +7°C° 0 mm 5 mps 757 mmHg 69%
    22:00 +7°C° 0 mm 5 mps 758 mmHg 68%
    23:00 +6°C° 0 mm 5 mps 759 mmHg 68%

    25 September, Tuesday

    Time Temperature Precipitation Wind Pressure Humidity
    00:00 +6°C° 0 mm 5 mps 759 mmHg 69%
    01:00 +6°C° 0 mm 5 mps 760 mmHg 69%
    02:00 +6°C° 0 mm 5 mps 760 mmHg 71%
    03:00 +6°C° 0 mm 5 mps 760 mmHg 73%
    04:00 +5°C° 0 mm 5 mps 761 mmHg 75%
    05:00 +6°C° 0 mm 5 mps 761 mmHg 75%
    06:00 +6°C° 0 mm 5 mps 761 mmHg 75%
    07:00 +7°C° 0 mm 6 mps 761 mmHg 75%
    08:00 +8°C° 0 mm 6 mps 761 mmHg 71%
    09:00 +9°C° 0 mm 7 mps 761 mmHg 68%
    10:00 +10°C° 0 mm 7 mps 761 mmHg 64%
    11:00 +11°C° 0.2 mm 7 mps 761 mmHg 62%
    12:00 +11°C° 0.2 mm 8 mps 761 mmHg 60%
    13:00 +12°C° 0.2 mm 8 mps 760 mmHg 58%
    14:00 +11°C° 1.2 mm 8 mps 759 mmHg 66%
    15:00 +10°C° 1.2 mm 8 mps 759 mmHg 73%
    16:00 +7°C° 1.2 mm 8 mps 758 mmHg 81%
    17:00 +8°C° 1 mm 7 mps 758 mmHg 80%
    18:00 +8°C° 1 mm 6 mps 758 mmHg 78%
    19:00 +8°C° 1 mm 6 mps 758 mmHg 77%
    20:00 +8°C° 0 mm 5 mps 759 mmHg 78%
    21:00 +7°C° 0 mm 5 mps 759 mmHg 79%
    22:00 +7°C° 0 mm 5 mps 759 mmHg 80%
    23:00 +7°C° 0 mm 5 mps 760 mmHg 81%
    Show more